Tiree, United Kingdom

8:55 AM BST on May 28, 2017 (GMT +0100)
Tiree

Weather History for EGPU - December, 2012

Change the Weather History Date:

Saturday, December 8, 2012

  Actual Average Record
Temperature  
Mean Temperature 42 °F -  
Max Temperature 49 °F 46 °F 53 °F (2016)
Min Temperature 35 °F 38 °F 35 °F (2010)
Degree Days  
Heating Degree Days 23    
Moisture  
Dew Point 43 °F    
Average Humidity 87    
Maximum Humidity 100    
Minimum Humidity 73    
Precipitation  
Precipitation 0.02 in 0.16 in - ()
Sea Level Pressure  
Sea Level Pressure 30.09 in    
Wind  
Wind Speed 13 mph ()    
Max Wind Speed 28 mph    
Max Gust Speed 39 mph    
Visibility 5.6 miles    
Events Rain    
Averages and records for this station are not official NWS values.
T = Trace of Precipitation, MM = Missing Value Source: Averaged Metar Reports

Daily Weather History Graph

Daily Weather History Graph

Search for Another Location

Airport or City:

Trip Planner

Search our weather history database for the weather conditions in past years. The results will help you decide how hot, cold, wet, or windy it might be!

Date:

Astronomy

Dec. 08, 2012 Rise Set
Actual Time 8:48 AM GMT 3:50 PM GMT
Civil Twilight 8:01 AM GMT 4:37 PM GMT
Nautical Twilight 7:11 AM GMT 5:27 PM GMT
Astronomical Twilight 6:25 AM GMT 6:13 PM GMT
Moon 2:02 AM GMT (12/8) 1:02 PM GMT (12/8)
Length of Visible Light 8h 36m
Length of Day
7h 01m
Waning Crescent, 30% of the Moon is Illuminated
Dec 8
Waning Crescent
Dec 13
New
Dec 20
First Quarter
Dec 28
Full
Jan 5
Last Quarter

Hourly Weather History & Observations

Time (GMT) Temp. Windchill Dew Point Humidity Pressure Visibility Wind Dir Wind Speed Gust Speed Precip Events Conditions
12:20 AM 37.4 °F 31.4 °F 30.2 °F 75% 30.15 in 6.2 mi NW 8.1 mph - N/A   Unknown
12:50 AM 37.4 °F 32.1 °F 30.2 °F 75% 30.15 in 6.2 mi WNW 6.9 mph - N/A   Unknown
1:20 AM 35.6 °F 29.9 °F 30.2 °F 81% 30.15 in 6.2 mi WNW 6.9 mph - N/A   Unknown
1:50 AM 37.4 °F 31.4 °F 30.2 °F 75% 30.15 in 6.2 mi WNW 8.1 mph - N/A   Unknown
2:20 AM 39.2 °F 33.6 °F 32.0 °F 75% 30.15 in 6.2 mi WNW 8.1 mph - N/A   Unknown
2:50 AM 38 °F - 32 °F 73% 30.17 in 13 mi West 8.1 mph - -   Scattered Clouds
2:50 AM 37.4 °F 31.4 °F 32.0 °F 81% 30.15 in 6.2 mi West 8.1 mph - N/A   Partly Cloudy
3:20 AM 41.0 °F 36.4 °F 35.6 °F 81% 30.15 in 6.2 mi West 6.9 mph - N/A   Mostly Cloudy
3:50 AM 42.8 °F 38.0 °F 37.4 °F 81% 30.15 in 6.2 mi WSW 8.1 mph - N/A   Scattered Clouds
4:20 AM 44.6 °F 39.2 °F 39.2 °F 81% 30.12 in 6.2 mi WSW 10.4 mph - N/A Rain Rain Showers
4:50 AM 44.6 °F 38.8 °F 41.0 °F 87% 30.12 in 6.2 mi WSW 11.5 mph - N/A   Mostly Cloudy
5:20 AM 44.6 °F 39.2 °F 42.8 °F 93% 30.12 in 6.2 mi WSW 10.4 mph - N/A   Mostly Cloudy
5:50 AM 45 °F - 43 °F 90% 30.12 in 2 mi WSW 16.1 mph - - Rain Rain
5:50 AM 44.6 °F 37.4 °F 42.8 °F 93% 30.12 in 1.6 mi WSW 16.1 mph - N/A   Haze
6:20 AM 46.4 °F 39.8 °F 44.6 °F 93% 30.09 in 1.3 mi WSW 16.1 mph - N/A   Light Drizzle
6:50 AM 46.4 °F 39.8 °F 46.4 °F 100% 30.09 in 1.1 mi WSW 16.1 mph - N/A   Mostly Cloudy
7:20 AM 48.2 °F - 46.4 °F 93% 30.09 in 1.1 mi WSW 17.3 mph - N/A   Light Drizzle
7:50 AM 48.2 °F - 48.2 °F 100% 30.09 in 6.2 mi West 17.3 mph - N/A   Mostly Cloudy
8:20 AM 48.2 °F - 48.2 °F 100% 30.09 in 6.2 mi West 18.4 mph - N/A   Mostly Cloudy
8:50 AM 49 °F - 47 °F 92% 30.11 in 3 mi WNW 17.3 mph - -   Light Haze
8:50 AM 50.0 °F - 48.2 °F 94% 30.09 in 4.3 mi WNW 17.3 mph - N/A   Mostly Cloudy
9:20 AM 48.2 °F - 46.4 °F 93% 30.09 in 1.9 mi WNW 18.4 mph - N/A   Scattered Clouds
9:50 AM 50.0 °F - 48.2 °F 94% 30.12 in 6.2 mi WNW 15.0 mph - N/A   Scattered Clouds
10:20 AM 48.2 °F - 48.2 °F 100% 30.09 in 6.2 mi WNW 15.0 mph - N/A   Scattered Clouds
10:50 AM 50.0 °F - 48.2 °F 94% 30.09 in 6.2 mi WNW 17.3 mph - N/A   Scattered Clouds
11:20 AM 50.0 °F - 46.4 °F 87% 30.09 in 6.2 mi WNW 19.6 mph - N/A   Mostly Cloudy
11:50 AM 49 °F - 47 °F 92% 30.12 in 9 mi WNW 18.4 mph - -   Mostly Cloudy
11:50 AM 50.0 °F - 48.2 °F 94% 30.09 in 6.2 mi WNW 18.4 mph - N/A   Mostly Cloudy
12:20 PM 50.0 °F - 48.2 °F 94% 30.09 in 6.2 mi WNW 18.4 mph - N/A   Mostly Cloudy
12:50 PM 50.0 °F - 48.2 °F 94% 30.09 in 6.2 mi WNW 18.4 mph - N/A   Light Drizzle
1:20 PM 50.0 °F - 46.4 °F 87% 30.09 in 6.2 mi WNW 21.9 mph - N/A   Mostly Cloudy
1:50 PM 50.0 °F - 46.4 °F 87% 30.09 in 6.2 mi WNW 18.4 mph - N/A   Mostly Cloudy
2:20 PM 50.0 °F - 44.6 °F 82% 30.09 in 6.2 mi WNW 18.4 mph - N/A   Mostly Cloudy
2:50 PM 49 °F - 44 °F 76% 30.10 in 11 mi WNW 18.4 mph - -   Scattered Clouds
2:50 PM 50.0 °F - 44.6 °F 82% 30.09 in 6.2 mi WNW 18.4 mph - N/A   Mostly Cloudy
3:20 PM 50.0 °F - 44.6 °F 82% 30.09 in 6.2 mi WNW 17.3 mph - N/A   Mostly Cloudy
3:50 PM 50.0 °F - 44.6 °F 82% 30.09 in 6.2 mi WNW 19.6 mph - N/A   Mostly Cloudy
4:20 PM 48.2 °F - 44.6 °F 87% 30.09 in 6.2 mi West 17.3 mph - N/A   Mostly Cloudy
4:50 PM 48.2 °F - 44.6 °F 87% 30.09 in 6.2 mi West 17.3 mph - N/A   Mostly Cloudy
5:20 PM 48.2 °F - 44.6 °F 87% 30.06 in 6.2 mi West 17.3 mph - N/A   Mostly Cloudy
5:50 PM 47 °F - 43 °F 82% 30.08 in 7 mi West 19.6 mph - -   Scattered Clouds
5:50 PM 48.2 °F - 42.8 °F 82% 30.06 in 6.2 mi West 19.6 mph - N/A   Partly Cloudy
6:20 PM 48.2 °F - 44.6 °F 87% 30.06 in 6.2 mi West 23.0 mph - N/A   Unknown
6:50 PM 48.2 °F - 44.6 °F 87% 30.06 in 6.2 mi West 23.0 mph - N/A   Mostly Cloudy
7:20 PM 48.2 °F - 44.6 °F 87% 30.06 in 6.2 mi West 21.9 mph - N/A   Partly Cloudy
7:50 PM 48.2 °F - 44.6 °F 87% 30.06 in 5.6 mi West 21.9 mph - N/A   Mostly Cloudy
8:20 PM 46.4 °F 38.1 °F 44.6 °F 93% 30.06 in 3.1 mi WNW 24.2 mph - N/A Rain Rain Showers
8:50 PM 47 °F - 45 °F 89% 30.06 in 3 mi WNW 21.9 mph - - Rain Light Rain Showers
8:50 PM 46.4 °F 38.5 °F 44.6 °F 93% 30.04 in 3.7 mi WNW 21.9 mph - N/A Rain Light Rain Showers
9:20 PM 46.4 °F 38.5 °F 42.8 °F 87% 30.04 in 6.2 mi West 21.9 mph - N/A   Partly Cloudy
9:50 PM 48.2 °F - 42.8 °F 82% 30.04 in 6.2 mi WNW 24.2 mph - N/A   Unknown
10:20 PM 48.2 °F - 42.8 °F 82% 30.04 in 6.2 mi WNW 25.3 mph - N/A   Partly Cloudy
10:50 PM 48.2 °F - 42.8 °F 82% 30.01 in 6.2 mi WNW 26.5 mph 39.1 mph N/A Rain Light Rain Showers
11:20 PM 48.2 °F - 42.8 °F 82% 30.01 in 6.2 mi WNW 26.5 mph - N/A Rain Light Rain
11:50 PM 46 °F - 44 °F 88% 30.03 in 3 mi NW 27.6 mph - - Rain Rain Showers
11:50 PM 46.4 °F 37.5 °F 42.8 °F 87% 30.01 in - NW 27.6 mph - N/A Rain Rain Showers